Back to catalog

STARLINK-11165

AliveCommunicationsVLEO
NORAD 60063·PAYLOAD·🇺🇸 United States

Launched Jun 19, 2024 from Vandenberg Space Force Base

Loading…

Next Passes (next 24 hours)

TLE

FreshSource: CelesTrak SupGP

Epoch: Sep 14, 2026, 15:09 UTC

1 60063C 24113E   26257.63173611  .00072553  00000+0  59770-3 0  2575
2 60063  53.1568 339.7013 0001180  74.9103  82.7687 15.69670850    11

Track STARLINK-11165 in real time with AllMySat

Download on the App Store